Year,Month,Day,Hour,Minute,Value (Times are PST for temperature in C)
2020,10,03,00,00,12.90
2020,10,03,00,01,12.90
2020,10,03,00,02,12.90
2020,10,03,00,03,12.90
2020,10,03,00,04,12.90
2020,10,03,00,05,12.90
2020,10,03,00,06,12.80
2020,10,03,00,07,12.80
2020,10,03,00,08,12.80
2020,10,03,00,09,12.70
2020,10,03,00,10,12.70
2020,10,03,00,11,12.60
2020,10,03,00,12,12.60
2020,10,03,00,13,12.60
2020,10,03,00,14,12.50
2020,10,03,00,15,12.50
2020,10,03,00,16,12.40
2020,10,03,00,17,12.40
2020,10,03,00,18,12.40
2020,10,03,00,19,12.40
2020,10,03,00,20,12.40
2020,10,03,00,21,12.30
2020,10,03,00,22,12.30
2020,10,03,00,23,12.30
2020,10,03,00,24,12.30
2020,10,03,00,25,12.30
2020,10,03,00,26,12.30
2020,10,03,00,27,12.30
2020,10,03,00,28,12.30
2020,10,03,00,29,12.30
2020,10,03,00,30,12.30
2020,10,03,00,31,12.30
2020,10,03,00,32,12.30
2020,10,03,00,33,12.30
2020,10,03,00,34,12.30
2020,10,03,00,35,12.20
2020,10,03,00,36,12.20
2020,10,03,00,37,12.20
2020,10,03,00,38,12.20
2020,10,03,00,39,12.20
2020,10,03,00,40,12.20
2020,10,03,00,41,12.30
2020,10,03,00,42,12.30
2020,10,03,00,43,12.30
2020,10,03,00,44,12.20
2020,10,03,00,45,12.30
2020,10,03,00,46,12.30
2020,10,03,00,47,12.30
2020,10,03,00,48,12.30
2020,10,03,00,49,12.30
2020,10,03,00,50,12.30
2020,10,03,00,51,12.30
2020,10,03,00,52,12.30
2020,10,03,00,53,12.20
2020,10,03,00,54,12.20
2020,10,03,00,55,12.20
2020,10,03,00,56,12.20
2020,10,03,00,57,12.20
2020,10,03,00,58,12.10
2020,10,03,00,59,12.10
2020,10,03,01,00,12.10
2020,10,03,01,01,12.10
2020,10,03,01,02,12.10
2020,10,03,01,03,12.10
2020,10,03,01,04,12.10
2020,10,03,01,05,12.10
2020,10,03,01,06,12.10
2020,10,03,01,07,12.10
2020,10,03,01,08,12.10
2020,10,03,01,09,12.20
2020,10,03,01,10,12.20
2020,10,03,01,11,12.20
2020,10,03,01,12,12.20
2020,10,03,01,13,12.20
2020,10,03,01,14,12.20
2020,10,03,01,15,12.10
2020,10,03,01,16,12.10
2020,10,03,01,17,12.10
2020,10,03,01,18,12.00
2020,10,03,01,19,12.00
2020,10,03,01,20,12.00
2020,10,03,01,21,11.90
2020,10,03,01,22,11.90
2020,10,03,01,23,11.90
2020,10,03,01,24,11.90
2020,10,03,01,25,11.90
2020,10,03,01,26,12.00
2020,10,03,01,27,12.00
2020,10,03,01,28,12.00
2020,10,03,01,29,12.00
2020,10,03,01,30,12.10
2020,10,03,01,31,12.10
2020,10,03,01,32,12.20
2020,10,03,01,33,12.20
2020,10,03,01,34,12.20
2020,10,03,01,35,12.30
2020,10,03,01,36,12.30
2020,10,03,01,37,12.30
2020,10,03,01,38,12.20
2020,10,03,01,39,12.20
2020,10,03,01,40,12.20
2020,10,03,01,41,12.10
2020,10,03,01,42,12.10
2020,10,03,01,43,12.00
2020,10,03,01,44,12.00
2020,10,03,01,45,12.00
2020,10,03,01,46,12.00
2020,10,03,01,47,11.90
2020,10,03,01,48,11.90
2020,10,03,01,49,11.90
2020,10,03,01,50,11.90
2020,10,03,01,51,11.80
2020,10,03,01,52,11.80
2020,10,03,01,53,11.80
2020,10,03,01,54,11.80
2020,10,03,01,55,11.80
2020,10,03,01,56,11.80
2020,10,03,01,57,11.80
2020,10,03,01,58,11.90
2020,10,03,01,59,11.90
2020,10,03,02,00,11.90
2020,10,03,02,01,11.90
2020,10,03,02,02,11.90
2020,10,03,02,03,11.90
2020,10,03,02,04,11.90
2020,10,03,02,05,11.90
2020,10,03,02,06,11.90
2020,10,03,02,07,11.90
2020,10,03,02,08,11.90
2020,10,03,02,09,11.90
2020,10,03,02,10,11.90
2020,10,03,02,11,11.90
2020,10,03,02,12,12.00
2020,10,03,02,13,12.00
2020,10,03,02,14,12.00
2020,10,03,02,15,11.90
2020,10,03,02,16,11.90
2020,10,03,02,17,11.90
2020,10,03,02,18,11.80
2020,10,03,02,19,11.80
2020,10,03,02,20,11.80
2020,10,03,02,21,11.70
2020,10,03,02,22,11.70
2020,10,03,02,23,11.70
2020,10,03,02,24,11.70
2020,10,03,02,25,11.70
2020,10,03,02,26,11.60
2020,10,03,02,27,11.60
2020,10,03,02,28,11.60
2020,10,03,02,29,11.60
2020,10,03,02,30,11.50
2020,10,03,02,31,11.50
2020,10,03,02,32,11.40
2020,10,03,02,33,11.40
2020,10,03,02,34,11.40
2020,10,03,02,35,11.40
2020,10,03,02,36,11.40
2020,10,03,02,37,11.40
2020,10,03,02,38,11.40
2020,10,03,02,39,11.40
2020,10,03,02,40,11.40
2020,10,03,02,41,11.40
2020,10,03,02,42,11.40
2020,10,03,02,43,11.50
2020,10,03,02,44,11.50
2020,10,03,02,45,11.50
2020,10,03,02,46,11.60
2020,10,03,02,47,11.60
2020,10,03,02,48,11.60
2020,10,03,02,49,11.60
2020,10,03,02,50,11.60
2020,10,03,02,51,11.70
2020,10,03,02,52,11.70
2020,10,03,02,53,11.70
2020,10,03,02,54,11.70
2020,10,03,02,55,11.70
2020,10,03,02,56,11.70
2020,10,03,02,57,11.70
2020,10,03,02,58,11.70
2020,10,03,02,59,11.70
2020,10,03,03,00,11.70
2020,10,03,03,01,11.70
2020,10,03,03,02,11.60
2020,10,03,03,03,11.60
2020,10,03,03,04,11.60
2020,10,03,03,05,11.60
2020,10,03,03,06,11.60
2020,10,03,03,07,11.60
2020,10,03,03,08,11.60
2020,10,03,03,09,11.60
2020,10,03,03,10,11.60
2020,10,03,03,11,11.60
2020,10,03,03,12,11.60
2020,10,03,03,13,11.60
2020,10,03,03,14,11.60
2020,10,03,03,15,11.60
2020,10,03,03,16,11.60
2020,10,03,03,17,11.60
2020,10,03,03,18,11.60
2020,10,03,03,19,11.60
2020,10,03,03,20,11.60
2020,10,03,03,21,11.50
2020,10,03,03,22,11.50
2020,10,03,03,23,11.50
2020,10,03,03,24,11.50
2020,10,03,03,25,11.40
2020,10,03,03,26,11.40
2020,10,03,03,27,11.40
2020,10,03,03,28,11.40
2020,10,03,03,29,11.30
2020,10,03,03,30,11.30
2020,10,03,03,31,11.30
2020,10,03,03,32,11.30
2020,10,03,03,33,11.20
2020,10,03,03,34,11.20
2020,10,03,03,35,11.20
2020,10,03,03,36,11.20
2020,10,03,03,37,11.20
2020,10,03,03,38,11.20
2020,10,03,03,39,11.20
2020,10,03,03,40,11.20
2020,10,03,03,41,11.20
2020,10,03,03,42,11.20
2020,10,03,03,43,11.30
2020,10,03,03,44,11.30
2020,10,03,03,45,11.30
2020,10,03,03,46,11.30
2020,10,03,03,47,11.30
2020,10,03,03,48,11.30
2020,10,03,03,49,11.30
2020,10,03,03,50,11.30
2020,10,03,03,51,11.30
2020,10,03,03,52,11.30
2020,10,03,03,53,11.30
2020,10,03,03,54,11.40
2020,10,03,03,55,11.40
2020,10,03,03,56,11.30
2020,10,03,03,57,11.30
2020,10,03,03,58,11.30
2020,10,03,03,59,11.30
2020,10,03,04,00,11.30
2020,10,03,04,01,11.30
2020,10,03,04,02,11.30
2020,10,03,04,03,11.30
2020,10,03,04,04,11.30
2020,10,03,04,05,11.30
2020,10,03,04,06,11.30
2020,10,03,04,07,11.30
2020,10,03,04,08,11.40
2020,10,03,04,09,11.40
2020,10,03,04,10,11.40
2020,10,03,04,11,11.50
2020,10,03,04,12,11.50
2020,10,03,04,13,11.50
2020,10,03,04,14,11.60
2020,10,03,04,15,11.60
2020,10,03,04,16,11.60
2020,10,03,04,17,11.60
2020,10,03,04,18,11.60
2020,10,03,04,19,11.60
2020,10,03,04,20,11.60
2020,10,03,04,21,11.50
2020,10,03,04,22,11.50
2020,10,03,04,23,11.40
2020,10,03,04,24,11.40
2020,10,03,04,25,11.40
2020,10,03,04,26,11.40
2020,10,03,04,27,11.40
2020,10,03,04,28,11.40
2020,10,03,04,29,11.40
2020,10,03,04,30,11.40
2020,10,03,04,31,11.40
2020,10,03,04,32,11.40
2020,10,03,04,33,11.40
2020,10,03,04,34,11.30
2020,10,03,04,35,11.30
2020,10,03,04,36,11.30
2020,10,03,04,37,11.30
2020,10,03,04,38,11.20
2020,10,03,04,39,11.20
2020,10,03,04,40,11.20
2020,10,03,04,41,11.20
2020,10,03,04,42,11.10
2020,10,03,04,43,11.10
2020,10,03,04,44,11.10
2020,10,03,04,45,11.10
2020,10,03,04,46,11.00
2020,10,03,04,47,11.00
2020,10,03,04,48,11.00
2020,10,03,04,49,11.00
2020,10,03,04,50,11.00
2020,10,03,04,51,11.00
2020,10,03,04,52,10.90
2020,10,03,04,53,10.90
2020,10,03,04,54,10.90
2020,10,03,04,55,10.90
2020,10,03,04,56,10.80
2020,10,03,04,57,10.80
2020,10,03,04,58,10.80
2020,10,03,04,59,10.70
2020,10,03,05,00,10.70
2020,10,03,05,01,10.60
2020,10,03,05,02,10.60
2020,10,03,05,03,10.60
2020,10,03,05,04,10.50
2020,10,03,05,05,10.50
2020,10,03,05,06,10.50
2020,10,03,05,07,10.50
2020,10,03,05,08,10.50
2020,10,03,05,09,10.50
2020,10,03,05,10,10.50
2020,10,03,05,11,10.60
2020,10,03,05,12,10.50
2020,10,03,05,13,10.50
2020,10,03,05,14,10.50
2020,10,03,05,15,10.50
2020,10,03,05,16,10.50
2020,10,03,05,17,10.50
2020,10,03,05,18,10.40
2020,10,03,05,19,10.40
2020,10,03,05,20,10.40
2020,10,03,05,21,10.40
2020,10,03,05,22,10.40
2020,10,03,05,23,10.40
2020,10,03,05,24,10.40
2020,10,03,05,25,10.40
2020,10,03,05,26,10.40
2020,10,03,05,27,10.40
2020,10,03,05,28,10.40
2020,10,03,05,29,10.40
2020,10,03,05,30,10.40
2020,10,03,05,31,10.40
2020,10,03,05,32,10.40
2020,10,03,05,33,10.30
2020,10,03,05,34,10.30
2020,10,03,05,35,10.20
2020,10,03,05,36,10.20
2020,10,03,05,37,10.20
2020,10,03,05,38,10.20
2020,10,03,05,39,10.20
2020,10,03,05,40,10.20
2020,10,03,05,41,10.10
2020,10,03,05,42,10.10
2020,10,03,05,43,10.10
2020,10,03,05,44,10.10
2020,10,03,05,45,10.10
2020,10,03,05,46,10.10
2020,10,03,05,47,10.00
2020,10,03,05,48,10.00
2020,10,03,05,49,10.00
2020,10,03,05,50,10.00
2020,10,03,05,51,10.00
2020,10,03,05,52,10.00
2020,10,03,05,53,10.00
2020,10,03,05,54,10.00
2020,10,03,05,55,10.00
2020,10,03,05,56,9.90
2020,10,03,05,57,9.90
2020,10,03,05,58,9.90
2020,10,03,05,59,9.90
2020,10,03,06,00,9.90
2020,10,03,06,01,9.90
2020,10,03,06,02,9.90
2020,10,03,06,03,9.90
2020,10,03,06,04,9.90
2020,10,03,06,05,9.80
2020,10,03,06,06,9.80
2020,10,03,06,07,9.80
2020,10,03,06,08,9.80
2020,10,03,06,09,9.70
2020,10,03,06,10,9.70
2020,10,03,06,11,9.70
2020,10,03,06,12,9.70
2020,10,03,06,13,9.60
2020,10,03,06,14,9.60
2020,10,03,06,15,9.60
2020,10,03,06,16,9.60
2020,10,03,06,17,9.60
2020,10,03,06,18,9.50
2020,10,03,06,19,9.50
2020,10,03,06,20,9.50
2020,10,03,06,21,9.50
2020,10,03,06,22,9.40
2020,10,03,06,23,9.40
2020,10,03,06,24,9.40
2020,10,03,06,25,9.40
2020,10,03,06,26,9.30
2020,10,03,06,27,9.30
2020,10,03,06,28,9.30
2020,10,03,06,29,9.30
2020,10,03,06,30,9.30
2020,10,03,06,31,9.30
2020,10,03,06,32,9.20
2020,10,03,06,33,9.20
2020,10,03,06,34,9.20
2020,10,03,06,35,9.20
2020,10,03,06,36,9.20
2020,10,03,06,37,9.20
2020,10,03,06,38,9.20
2020,10,03,06,39,9.10
2020,10,03,06,40,9.10
2020,10,03,06,41,9.10
2020,10,03,06,42,9.10
2020,10,03,06,43,9.10
2020,10,03,06,44,9.10
2020,10,03,06,45,9.10
2020,10,03,06,46,9.00
2020,10,03,06,47,9.00
2020,10,03,06,48,9.00
2020,10,03,06,49,9.00
2020,10,03,06,50,9.00
2020,10,03,06,51,9.00
2020,10,03,06,52,9.00
2020,10,03,06,53,9.00
2020,10,03,06,54,9.00
2020,10,03,06,55,8.90
2020,10,03,06,56,8.90
2020,10,03,06,57,8.90
2020,10,03,06,58,8.90
2020,10,03,06,59,8.90
2020,10,03,07,00,8.90
2020,10,03,07,01,8.90
2020,10,03,07,02,8.90
2020,10,03,07,03,8.90
2020,10,03,07,04,8.90
2020,10,03,07,05,8.90
2020,10,03,07,06,8.90
2020,10,03,07,07,8.90
2020,10,03,07,08,8.90
2020,10,03,07,09,8.90
2020,10,03,07,10,8.90
2020,10,03,07,11,8.90
2020,10,03,07,12,8.90
2020,10,03,07,13,8.90
2020,10,03,07,14,8.90
2020,10,03,07,15,8.90
2020,10,03,07,16,8.90
2020,10,03,07,17,8.90
2020,10,03,07,18,8.90
2020,10,03,07,19,8.90
2020,10,03,07,20,8.90
2020,10,03,07,21,8.90
2020,10,03,07,22,8.90
2020,10,03,07,23,8.90
2020,10,03,07,24,8.90
2020,10,03,07,25,8.90
2020,10,03,07,26,8.90
2020,10,03,07,27,8.90
2020,10,03,07,28,8.90
2020,10,03,07,29,8.90
2020,10,03,07,30,8.80
2020,10,03,07,31,8.90
2020,10,03,07,32,8.90
2020,10,03,07,33,8.90
2020,10,03,07,34,8.90
2020,10,03,07,35,8.90
2020,10,03,07,36,8.90
2020,10,03,07,37,9.00
2020,10,03,07,38,9.00
2020,10,03,07,39,9.00
2020,10,03,07,40,9.00
2020,10,03,07,41,9.00
2020,10,03,07,42,9.00
2020,10,03,07,43,9.00
2020,10,03,07,44,9.00
2020,10,03,07,45,9.00
2020,10,03,07,46,9.00
2020,10,03,07,47,9.10
2020,10,03,07,48,9.10
2020,10,03,07,49,9.10
2020,10,03,07,50,9.10
2020,10,03,07,51,9.10
2020,10,03,07,52,9.10
2020,10,03,07,53,9.10
2020,10,03,07,54,9.10
2020,10,03,07,55,9.10
2020,10,03,07,56,9.10
2020,10,03,07,57,9.10
2020,10,03,07,58,9.10
2020,10,03,07,59,9.10
2020,10,03,08,00,9.10
2020,10,03,08,01,9.10
2020,10,03,08,02,9.10
2020,10,03,08,03,9.20
2020,10,03,08,04,9.20
2020,10,03,08,05,9.20
2020,10,03,08,06,9.20
2020,10,03,08,07,9.30
2020,10,03,08,08,9.30
2020,10,03,08,09,9.30
2020,10,03,08,10,9.30
2020,10,03,08,11,9.40
2020,10,03,08,12,9.40
2020,10,03,08,13,9.50
2020,10,03,08,14,9.50
2020,10,03,08,15,9.50
2020,10,03,08,16,9.60
2020,10,03,08,17,9.60
2020,10,03,08,18,9.60
2020,10,03,08,19,9.70
2020,10,03,08,20,9.70
2020,10,03,08,21,9.70
2020,10,03,08,22,9.70
2020,10,03,08,23,9.70
2020,10,03,08,24,9.80
2020,10,03,08,25,9.80
2020,10,03,08,26,9.80
2020,10,03,08,27,9.80
2020,10,03,08,28,9.80
2020,10,03,08,29,9.80
2020,10,03,08,30,9.80
2020,10,03,08,31,9.90
2020,10,03,08,32,9.90
2020,10,03,08,33,9.90
2020,10,03,08,34,9.90
2020,10,03,08,35,9.90
2020,10,03,08,36,10.00
2020,10,03,08,37,10.00
2020,10,03,08,38,10.00
2020,10,03,08,39,10.10
2020,10,03,08,40,10.10
2020,10,03,08,41,10.10
2020,10,03,08,42,10.20
2020,10,03,08,43,10.20
2020,10,03,08,44,10.20
2020,10,03,08,45,10.20
2020,10,03,08,46,10.20
2020,10,03,08,47,10.30
2020,10,03,08,48,10.30
2020,10,03,08,49,10.30
2020,10,03,08,50,10.30
2020,10,03,08,51,10.30
2020,10,03,08,52,10.30
2020,10,03,08,53,10.30
2020,10,03,08,54,10.30
2020,10,03,08,55,10.30
2020,10,03,08,56,10.30
2020,10,03,08,57,10.40
2020,10,03,08,58,10.40
2020,10,03,08,59,10.40
2020,10,03,09,00,10.40
2020,10,03,09,01,10.40
2020,10,03,09,02,10.40
2020,10,03,09,03,10.40
2020,10,03,09,04,10.40
2020,10,03,09,05,10.50
2020,10,03,09,06,10.50
2020,10,03,09,07,10.50
2020,10,03,09,08,10.50
2020,10,03,09,09,10.60
2020,10,03,09,10,10.60
2020,10,03,09,11,10.60
2020,10,03,09,12,10.60
2020,10,03,09,13,10.60
2020,10,03,09,14,10.60
2020,10,03,09,15,10.60
2020,10,03,09,16,10.60
2020,10,03,09,17,10.60
2020,10,03,09,18,10.60
2020,10,03,09,19,10.60
2020,10,03,09,20,10.60
2020,10,03,09,21,10.70
2020,10,03,09,22,10.70
2020,10,03,09,23,10.70
2020,10,03,09,24,10.70
2020,10,03,09,25,10.70
2020,10,03,09,26,10.70
2020,10,03,09,27,10.70
2020,10,03,09,28,10.70
2020,10,03,09,29,10.70
2020,10,03,09,30,10.70
2020,10,03,09,31,10.80
2020,10,03,09,32,10.80
2020,10,03,09,33,10.80
2020,10,03,09,34,10.80
2020,10,03,09,35,10.80
2020,10,03,09,36,10.80
2020,10,03,09,37,10.80
2020,10,03,09,38,10.80
2020,10,03,09,39,10.80
2020,10,03,09,40,10.80
2020,10,03,09,41,10.80
2020,10,03,09,42,10.80
2020,10,03,09,43,10.80
2020,10,03,09,44,10.80
2020,10,03,09,45,10.80
2020,10,03,09,46,10.80
2020,10,03,09,47,10.80
2020,10,03,09,48,10.90
2020,10,03,09,49,10.90
2020,10,03,09,50,10.90
2020,10,03,09,51,11.00
2020,10,03,09,52,11.00
2020,10,03,09,53,11.10
2020,10,03,09,54,11.10
2020,10,03,09,55,11.10
2020,10,03,09,56,11.10
2020,10,03,09,57,11.20
2020,10,03,09,58,11.20
2020,10,03,09,59,11.10
2020,10,03,10,00,11.10
2020,10,03,10,01,11.10
2020,10,03,10,02,11.10
2020,10,03,10,03,11.20
2020,10,03,10,04,11.20
2020,10,03,10,05,11.20
2020,10,03,10,06,11.20
2020,10,03,10,07,11.20
2020,10,03,10,08,11.20
2020,10,03,10,09,11.20
2020,10,03,10,10,11.10
2020,10,03,10,11,11.10
2020,10,03,10,12,11.10
2020,10,03,10,13,11.10
2020,10,03,10,14,11.10
2020,10,03,10,15,11.10
2020,10,03,10,16,11.10
2020,10,03,10,17,11.10
2020,10,03,10,18,11.10
2020,10,03,10,19,11.10
2020,10,03,10,20,11.10
2020,10,03,10,21,11.10
2020,10,03,10,22,11.10
2020,10,03,10,23,11.10
2020,10,03,10,24,11.20
2020,10,03,10,25,11.20
2020,10,03,10,26,11.20
2020,10,03,10,27,11.20
2020,10,03,10,28,11.20
2020,10,03,10,29,11.30
2020,10,03,10,30,11.30
2020,10,03,10,31,11.30
2020,10,03,10,32,11.30
2020,10,03,10,33,11.30
2020,10,03,10,34,11.30
2020,10,03,10,35,11.30
2020,10,03,10,36,11.30
2020,10,03,10,37,11.30
2020,10,03,10,38,11.30
2020,10,03,10,39,11.30
2020,10,03,10,40,11.30
2020,10,03,10,41,11.30
2020,10,03,10,42,11.30
2020,10,03,10,43,11.30
2020,10,03,10,44,11.40
2020,10,03,10,45,11.40
2020,10,03,10,46,11.40
2020,10,03,10,47,11.40
2020,10,03,10,48,11.50
2020,10,03,10,49,11.50
2020,10,03,10,50,11.50
2020,10,03,10,51,11.50
2020,10,03,10,52,11.50
2020,10,03,10,53,11.50
2020,10,03,10,54,11.50
2020,10,03,10,55,11.60
2020,10,03,10,56,11.60
2020,10,03,10,57,11.60
2020,10,03,10,58,11.70
2020,10,03,10,59,11.70
2020,10,03,11,00,11.70
2020,10,03,11,01,11.80
2020,10,03,11,02,11.80
2020,10,03,11,03,11.80
2020,10,03,11,04,11.90
2020,10,03,11,05,11.90
2020,10,03,11,06,12.00
2020,10,03,11,07,12.00
2020,10,03,11,08,12.10
2020,10,03,11,09,12.10
2020,10,03,11,10,12.10
2020,10,03,11,11,12.10
2020,10,03,11,12,12.10
2020,10,03,11,13,12.10
2020,10,03,11,14,12.10
2020,10,03,11,15,12.20
2020,10,03,11,16,12.20
2020,10,03,11,17,12.20
2020,10,03,11,18,12.20
2020,10,03,11,19,12.30
2020,10,03,11,20,12.30
2020,10,03,11,21,12.30
2020,10,03,11,22,12.40
2020,10,03,11,23,12.40
2020,10,03,11,24,12.40
2020,10,03,11,25,12.40
2020,10,03,11,26,12.40
2020,10,03,11,27,12.40
2020,10,03,11,28,12.40
2020,10,03,11,29,12.40
2020,10,03,11,30,12.40
2020,10,03,11,31,12.40
2020,10,03,11,32,12.40
2020,10,03,11,33,12.40
2020,10,03,11,34,12.50
2020,10,03,11,35,12.50
2020,10,03,11,36,12.60
2020,10,03,11,37,12.60
2020,10,03,11,38,12.60
2020,10,03,11,39,12.60
2020,10,03,11,40,12.60
2020,10,03,11,41,12.60
2020,10,03,11,42,12.70
2020,10,03,11,43,12.70
2020,10,03,11,44,12.60
2020,10,03,11,45,12.60
2020,10,03,11,46,12.60
2020,10,03,11,47,12.60
2020,10,03,11,48,12.60
2020,10,03,11,49,12.60
2020,10,03,11,50,12.60
2020,10,03,11,51,12.60
2020,10,03,11,52,12.60
2020,10,03,11,53,12.60
2020,10,03,11,54,12.60
2020,10,03,11,55,12.60
2020,10,03,11,56,12.60
2020,10,03,11,57,12.60
2020,10,03,11,58,12.60
2020,10,03,11,59,12.60
2020,10,03,12,00,12.60
2020,10,03,12,01,12.70
2020,10,03,12,02,12.70
2020,10,03,12,03,12.70
2020,10,03,12,04,12.80
2020,10,03,12,05,12.80
2020,10,03,12,06,12.80
2020,10,03,12,07,12.80
2020,10,03,12,08,12.80
2020,10,03,12,09,12.80
2020,10,03,12,10,12.90
2020,10,03,12,11,12.90
2020,10,03,12,12,12.90
2020,10,03,12,13,13.00
2020,10,03,12,14,13.00
2020,10,03,12,15,13.10
2020,10,03,12,16,13.10
2020,10,03,12,17,13.10
2020,10,03,12,18,13.10
2020,10,03,12,19,13.10
2020,10,03,12,20,13.10
2020,10,03,12,21,13.20
2020,10,03,12,22,13.20
2020,10,03,12,23,13.30
2020,10,03,12,24,13.30
2020,10,03,12,25,13.40
2020,10,03,12,26,13.40
2020,10,03,12,27,13.50
2020,10,03,12,28,13.50
2020,10,03,12,29,13.60
2020,10,03,12,30,13.60
2020,10,03,12,31,13.70
2020,10,03,12,32,13.70
2020,10,03,12,33,13.80
2020,10,03,12,34,13.80
2020,10,03,12,35,13.80
2020,10,03,12,36,13.90
2020,10,03,12,37,14.00
2020,10,03,12,38,14.00
2020,10,03,12,39,14.10
2020,10,03,12,40,14.10
2020,10,03,12,41,14.10
2020,10,03,12,42,14.10
2020,10,03,12,43,14.20
2020,10,03,12,44,14.20
2020,10,03,12,45,14.10
2020,10,03,12,46,14.10
2020,10,03,12,47,14.00
2020,10,03,12,48,14.00
2020,10,03,12,49,14.00
2020,10,03,12,50,14.00
2020,10,03,12,51,14.10
2020,10,03,12,52,14.10
2020,10,03,12,53,14.10
2020,10,03,12,54,14.00
2020,10,03,12,55,14.00
2020,10,03,12,56,13.90
2020,10,03,12,57,13.90
2020,10,03,12,58,13.90
2020,10,03,12,59,13.90
2020,10,03,13,00,13.90
2020,10,03,13,01,14.00
2020,10,03,13,02,13.90
2020,10,03,13,03,13.90
2020,10,03,13,04,13.90
2020,10,03,13,05,13.80
2020,10,03,13,06,13.80
2020,10,03,13,07,13.80
2020,10,03,13,08,13.80
2020,10,03,13,09,13.80
2020,10,03,13,10,13.80
2020,10,03,13,11,13.80
2020,10,03,13,12,13.70
2020,10,03,13,13,13.70
2020,10,03,13,14,13.70
2020,10,03,13,15,13.70
2020,10,03,13,16,13.80
2020,10,03,13,17,13.80
2020,10,03,13,18,13.90
2020,10,03,13,19,13.90
2020,10,03,13,20,14.00
2020,10,03,13,21,14.00
2020,10,03,13,22,14.00
2020,10,03,13,23,13.90
2020,10,03,13,24,13.90
2020,10,03,13,25,13.90
2020,10,03,13,26,14.00
2020,10,03,13,27,14.00
2020,10,03,13,28,14.00
2020,10,03,13,29,13.90
2020,10,03,13,30,13.90
2020,10,03,13,31,13.90
2020,10,03,13,32,14.00
2020,10,03,13,33,14.00
2020,10,03,13,34,14.10
2020,10,03,13,35,14.10
2020,10,03,13,36,14.10
2020,10,03,13,37,14.10
2020,10,03,13,38,14.20
2020,10,03,13,39,14.20
2020,10,03,13,40,14.20
2020,10,03,13,41,14.20
2020,10,03,13,42,14.30
2020,10,03,13,43,14.30
2020,10,03,13,44,14.30
2020,10,03,13,45,14.30
2020,10,03,13,46,14.40
2020,10,03,13,47,14.50
2020,10,03,13,48,14.60
2020,10,03,13,49,14.70
2020,10,03,13,50,14.70
2020,10,03,13,51,14.80
2020,10,03,13,52,14.90
2020,10,03,13,53,14.90
2020,10,03,13,54,15.00
2020,10,03,13,55,15.10
2020,10,03,13,56,15.10
2020,10,03,13,57,15.20
2020,10,03,13,58,15.30
2020,10,03,13,59,15.40
2020,10,03,14,00,15.40
2020,10,03,14,01,15.50
2020,10,03,14,02,15.50
2020,10,03,14,03,15.50
2020,10,03,14,04,15.60
2020,10,03,14,05,15.60
2020,10,03,14,06,15.70
2020,10,03,14,07,15.70
2020,10,03,14,08,15.70
2020,10,03,14,09,15.70
2020,10,03,14,10,15.70
2020,10,03,14,11,15.80
2020,10,03,14,12,15.80
2020,10,03,14,13,15.80
2020,10,03,14,14,15.90
2020,10,03,14,15,15.90
2020,10,03,14,16,16.00
2020,10,03,14,17,16.00
2020,10,03,14,18,16.00
2020,10,03,14,19,16.00
2020,10,03,14,20,16.00
2020,10,03,14,21,16.10
2020,10,03,14,22,16.10
2020,10,03,14,23,16.10
2020,10,03,14,24,16.20
2020,10,03,14,25,16.20
2020,10,03,14,26,16.20
2020,10,03,14,27,16.30
2020,10,03,14,28,16.30
2020,10,03,14,29,16.40
2020,10,03,14,30,16.50
2020,10,03,14,31,16.60
2020,10,03,14,32,16.70
2020,10,03,14,33,16.80
2020,10,03,14,34,16.90
2020,10,03,14,35,17.00
2020,10,03,14,36,17.00
2020,10,03,14,37,17.00
2020,10,03,14,38,17.00
2020,10,03,14,39,17.10
2020,10,03,14,40,17.10
2020,10,03,14,41,17.10
2020,10,03,14,42,17.20
2020,10,03,14,43,17.10
2020,10,03,14,44,17.10
2020,10,03,14,45,17.10
2020,10,03,14,46,17.10
2020,10,03,14,47,17.10
2020,10,03,14,48,17.10
2020,10,03,14,49,17.10
2020,10,03,14,50,17.10
2020,10,03,14,51,17.10
2020,10,03,14,52,17.10
2020,10,03,14,53,17.10
2020,10,03,14,54,17.20
2020,10,03,14,55,17.20
2020,10,03,14,56,17.20
2020,10,03,14,57,17.20
2020,10,03,14,58,17.10
2020,10,03,14,59,17.10
2020,10,03,15,00,17.10
2020,10,03,15,01,17.00
2020,10,03,15,02,17.00
2020,10,03,15,03,17.00
2020,10,03,15,04,17.10
2020,10,03,15,05,17.10
2020,10,03,15,06,17.10
2020,10,03,15,07,17.10
2020,10,03,15,08,17.00
2020,10,03,15,09,17.00
2020,10,03,15,10,17.10
2020,10,03,15,11,17.10
2020,10,03,15,12,17.20
2020,10,03,15,13,17.20
2020,10,03,15,14,17.30
2020,10,03,15,15,17.30
2020,10,03,15,16,17.30
2020,10,03,15,17,17.30
2020,10,03,15,18,17.30
2020,10,03,15,19,17.30
2020,10,03,15,20,17.20
2020,10,03,15,21,17.20
2020,10,03,15,22,17.20
2020,10,03,15,23,17.10
2020,10,03,15,24,17.00
2020,10,03,15,25,17.00
2020,10,03,15,26,16.90
2020,10,03,15,27,16.90
2020,10,03,15,28,16.80
2020,10,03,15,29,16.80
2020,10,03,15,30,16.80
2020,10,03,15,31,16.80
2020,10,03,15,32,16.80
2020,10,03,15,33,16.80
2020,10,03,15,34,16.80
2020,10,03,15,35,16.80
2020,10,03,15,36,16.90
2020,10,03,15,37,16.90
2020,10,03,15,38,16.80
2020,10,03,15,39,16.80
2020,10,03,15,40,16.80
2020,10,03,15,41,16.80
2020,10,03,15,42,16.90
2020,10,03,15,43,16.90
2020,10,03,15,44,16.90
2020,10,03,15,45,16.90
2020,10,03,15,46,16.80
2020,10,03,15,47,16.90
2020,10,03,15,48,16.80
2020,10,03,15,49,16.90
2020,10,03,15,50,16.90
2020,10,03,15,51,16.90
2020,10,03,15,52,16.90
2020,10,03,15,53,16.90
2020,10,03,15,54,16.90
2020,10,03,15,55,16.80
2020,10,03,15,56,16.90
2020,10,03,15,57,16.90
2020,10,03,15,58,16.90
2020,10,03,15,59,16.90
2020,10,03,16,00,16.90
2020,10,03,16,01,16.90
2020,10,03,16,02,16.90
2020,10,03,16,03,16.90
2020,10,03,16,04,16.80
2020,10,03,16,05,16.80
2020,10,03,16,06,16.80
2020,10,03,16,07,16.80
2020,10,03,16,08,16.80
2020,10,03,16,09,16.80
2020,10,03,16,10,16.80
2020,10,03,16,11,16.80
2020,10,03,16,12,16.70
2020,10,03,16,13,16.70
2020,10,03,16,14,16.70
2020,10,03,16,15,16.70
2020,10,03,16,16,16.70
2020,10,03,16,17,16.80
2020,10,03,16,18,16.70
2020,10,03,16,19,16.70
2020,10,03,16,20,16.70
2020,10,03,16,21,16.70
2020,10,03,16,22,16.70
2020,10,03,16,23,16.70
2020,10,03,16,24,16.70
2020,10,03,16,25,16.70
2020,10,03,16,26,16.70
2020,10,03,16,27,16.70
2020,10,03,16,28,16.70
2020,10,03,16,29,16.70
2020,10,03,16,30,16.60
2020,10,03,16,31,16.60
2020,10,03,16,32,16.60
2020,10,03,16,33,16.50
2020,10,03,16,34,16.50
2020,10,03,16,35,16.40
2020,10,03,16,36,16.40
2020,10,03,16,37,16.30
2020,10,03,16,38,16.30
2020,10,03,16,39,16.30
2020,10,03,16,40,16.30
2020,10,03,16,41,16.30
2020,10,03,16,42,16.30
2020,10,03,16,43,16.30
2020,10,03,16,44,16.30
2020,10,03,16,45,16.30
2020,10,03,16,46,16.30
2020,10,03,16,47,16.30
2020,10,03,16,48,16.30
2020,10,03,16,49,16.30
2020,10,03,16,50,16.30
2020,10,03,16,51,16.30
2020,10,03,16,52,16.30
2020,10,03,16,53,16.30
2020,10,03,16,54,16.30
2020,10,03,16,55,16.20
2020,10,03,16,56,16.20
2020,10,03,16,57,16.20
2020,10,03,16,58,16.20
2020,10,03,16,59,16.20
2020,10,03,17,00,16.20
2020,10,03,17,01,16.20
2020,10,03,17,02,16.20
2020,10,03,17,03,16.20
2020,10,03,17,04,16.20
2020,10,03,17,05,16.10
2020,10,03,17,06,16.10
2020,10,03,17,07,16.10
2020,10,03,17,08,16.00
2020,10,03,17,09,16.00
2020,10,03,17,10,16.00
2020,10,03,17,11,16.00
2020,10,03,17,12,16.00
2020,10,03,17,13,16.00
2020,10,03,17,14,15.90
2020,10,03,17,15,15.90
2020,10,03,17,16,15.90
2020,10,03,17,17,15.80
2020,10,03,17,18,15.80
2020,10,03,17,19,15.80
2020,10,03,17,20,15.80
2020,10,03,17,21,15.80
2020,10,03,17,22,15.80
2020,10,03,17,23,15.70
2020,10,03,17,24,15.70
2020,10,03,17,25,15.70
2020,10,03,17,26,15.70